This demonstration page uses our WeatherBlox Daily Observations layout. Learn more.

Left ArrowRight Arrow

41.12389, -100.76542

Hourly Observations for August 16, 2022

Temp ( °F °C ) Dew Point ( °F °C ) Humidity (%) Winds ( mph kmh ) Pressure ( in mb ) Visibility ( mi km ) Precip ( " mm )
12:00 am 00:00 Cloudy 68 20 65 18.3 90 90 E 10 17 29.95 1014 10 16 0.00 0.00
12:32 am 00:32 Cloudy 68 20 64 17.8 87 87 ESE 7 11 29.96 1015 10 16 0.00 0.00
12:53 am 00:53 Cloudy 68 20 64 17.8 87 87 NE 8 13 30.01 1016 10 16 0.00 0.00
1:07 am 01:07 Cloudy 68 20 64 17.8 87 87 NNE 6 9 29.97 1015 10 16 0.00 0.00
1:24 am 01:24 Cloudy 67 19.4 64 17.8 90 90 NE 3 6 29.99 1015 10 16 0.00 0.00
1:53 am 01:53 Cloudy 68 20 63 17.2 84 84 Calm 30.01 1016 10 16 0.00 0.00
2:53 am 02:53 Cloudy 67 19.4 64 17.8 90 90 NE 5 7 30.00 1016 10 16 0.00 0.00
3:39 am 03:39 Cloudy 67 19.4 63 17.2 87 87 NE 7 11 29.98 1015 10 16 0.00 0.00
3:53 am 03:53 Cloudy 66 18.9 63 17.2 90 90 ENE 7 11 29.99 1016 7 11 0.00 0.00
4:10 am 04:10 Cloudy with Mist and Fog 66 18.9 63 17.2 90 90 ENE 7 11 29.98 1015 5 8 0.00 0.00
4:21 am 04:21 Cloudy 66 18.9 63 17.2 90 90 ENE 9 15 29.97 1015 10 16 0.00 0.00
4:27 am 04:27 Cloudy 66 18.9 63 17.2 90 90 E 9 15 29.98 1015 10 16 0.00 0.00
4:45 am 04:45 Cloudy 66 18.9 63 17.2 90 90 ENE 7 11 29.98 1015 10 16 0.00 0.00
4:53 am 04:53 Cloudy 66 18.9 62 16.7 87 87 E 8 13 29.99 1016 10 16 0.00 0.00
5:25 am 05:25 Cloudy 65 18.3 62 16.7 90 90 ENE 7 11 29.99 1015 10 16 0.00 0.00
5:48 am 05:48 Cloudy 64 18 63 17 94 94 ENE 8 13 29.99 1016 10 16 0.00 0.00
5:53 am 05:53 Cloudy 65 18.3 62 16.7 90 90 ENE 7 11 30.00 1016 10 16 0.00 0.00
6:53 am 06:53 Cloudy 64 17.8 61 16.1 90 90 NE 3 6 30.03 1017 10 16 0.00 0.00
7:05 am 07:05 Cloudy 65 18.3 61 16.1 87 87 ENE 5 7 30.02 1016 10 16 0.00 0.00
7:44 am 07:44 Cloudy 65 18.3 61 16.1 87 87 E 6 9 30.03 1017 10 16 0.00 0.00
7:53 am 07:53 Cloudy 65 18.3 61 16.1 87 87 E 7 11 30.06 1018 10 16 0.00 0.00
8:15 am 08:15 Cloudy 65 18.3 61 16.1 87 87 E 7 11 30.04 1017 10 16 0.00 0.00
8:53 am 08:53 Cloudy 65 18.3 61 16.1 87 87 E 9 15 30.08 1019 10 16 0.00 0.00
9:53 am 09:53 Cloudy 65 18.3 61 16.1 87 87 E 8 13 30.09 1019 10 16 0.00 0.00
10:53 am 10:53 Cloudy 65 18.3 61 16.1 87 87 E 9 15 30.08 1019 10 16 0.00 0.00
11:53 am 11:53 Cloudy 67 19.4 61 16.1 81 81 ENE 9 15 30.08 1019 10 16 0.00 0.00
12:53 pm 12:53 Cloudy 69 20.6 61 16.1 75 75 NE 8 13 30.09 1019 10 16 0.00 0.00
1:05 pm 13:05 Cloudy 69 20.6 61 16.1 75 75 NNE 8 13 30.04 1017 10 16 0.00 0.00
1:53 pm 13:53 Cloudy 70 21.1 61 16.1 73 73 ENE 10 17 30.10 1019 10 16 0.00 0.00
2:53 pm 14:53 Cloudy 70 21.1 60 15.6 71 71 ENE 10 17 30.10 1019 10 16 0.00 0.00
3:53 pm 15:53 Cloudy 69 20.6 59 15 70 70 E 12 19 30.10 1019 10 16 0.00 0.00
4:53 pm 16:53 Cloudy 68 20 59 15 73 73 E 9 15 30.10 1019 10 16 0.00 0.00
5:53 pm 17:53 Cloudy 68 20 59 15 73 73 ENE 6 9 30.10 1019 10 16 0.00 0.00
6:53 pm 18:53 Cloudy 69 20.6 59 15 70 70 ENE 8 13 30.10 1019 10 16 0.00 0.00
7:53 pm 19:53 Cloudy 67 19.4 60 15.6 79 79 ENE 9 15 30.10 1019 10 16 0.00 0.00
8:53 pm 20:53 Cloudy 66 18.9 60 15.6 81 81 ENE 10 17 30.11 1020 10 16 0.00 0.00
9:53 pm 21:53 Cloudy 65 18.3 61 16.1 87 87 E 5 7 30.13 1020 10 16 0.00 0.00
10:18 pm 22:18 Cloudy 65 18.3 61 16.1 87 87 Calm 30.10 1019 10 16 0.00 0.00
10:33 pm 22:33 Cloudy 65 18.3 61 16.1 87 87 E 3 6 30.10 1019 10 16 0.00 0.00
10:53 pm 22:53 Cloudy 65 18.3 61 16.1 87 87 E 7 11 30.14 1021 10 16 0.00 0.00
11:10 pm 23:10 Cloudy 65 18.3 60 15.6 84 84 E 8 13 30.10 1019 10 16 0.00 0.00
11:53 pm 23:53 Cloudy 65 18.3 60 15.6 84 84 E 7 11 30.14 1021 10 16 0.00 0.00

Powered by AerisWeather